Probability
0 0 0 0 0 0 0 0 0 0 0 3 10 10 3 0 0 0 0 0 0 0 0 0 0 0 0 0 0 0 0 0 0 0 0 0 0 0 0 0 0 0 0 0
0 0 0 0 0 0 0 0 0 0 0 0 6 3 0 0 0 0 0 0 0 0 0 0 0 0 0 0 0 0 0 0 0 0 0 0 0 0 0 0 0 0 0 0
0 0 0 0 0 0 0 0 0 0 0 3 6 3 0 0 0 0 0 0 0 0 0 0 0 0 0 0 0 0 0 0 0 0 0 0 0 0 0 0 0 0 0 0
0 0 0 0 0 0 0 0 0 3 3 0 0 0 0 0 0 0 0 0 0 0 0 0 0 0 0 0 0 0 0 0 0 0 0 0 0 0 0 0 0 0 0 0
0 0 0 0 0 0 0 0 0 0 0 0 0 0 0 0 0 0 0 0 0 0 0 0 0 0 0 0 0 0 0 0 0 0 0 0 0 0 0 0 0 0 0 0
0 0 0 0 0 0 0 0 0 0 0 0 0 0 0 0 0 0 0 0 0 0 0 0 0 0 0 0 0 0 0 0 0 0 0 0 0 0 0 0 0 0 0 0
0 0 0 0 0 0 0 0 0 0 0 0 0 0 0 0 0 0 0 0 0 0 0 0 0 0 0 0 0 0 0 0 0 0 0 0 0 0 0 0 0 0 0 0
0 0 0 0 0 0 0 0 0 0 0 0 0 0 0 0 0 0 0 0 0 0 0 0 0 0 0 0 0 0 0 0 0 0 0 0 0 0 0 0 0 0 0 0
0 0 0 0 0 0 0 0 0 0 0 0 0 0 0 0 0 0 0 0 0 0 0 0 0 0 0 0 0 0 0 0 0 0 0 0 0 0 0 0 0 0 0 0
0 0 0 0 0 0 0 0 0 0 0 0 0 0 0 0 0 0 0 0 0 0 0 0 0 0 0 0 0 0 0 0 0 0 0 0 0 0 0 0 0 0 0 0
0 0 0 0 0 0 0 0 0 0 0 0 0 0 0 0 0 0 0 0 0 0 0 0 0 0 0 0 0 0 0 0 0 0 0 0 0 0 0 0 0 0 0 0
0 0 0 0 0 0 0 0 0 0 0 0 0 0 0 0 0 0 0 0 0 0 0 0 0 0 0 0 0 0 0 0 0 0 0 0 0 0 0 0 0 0 0 0
0 0 0 0 0 0 0 0 0 0 0 0 0 0 0 0 0 0 0 0 0 0 0 0 0 0 0 0 0 0 0 0 0 0 0 0 0 0 0 0 0 0 0 0
0 0 0 0 0 0 0 0 0 0 0 0 0 0 0 0 0 0 0 0 0 0 0 0 0 0 0 0 0 0 0 0 0 0 0 0 0 0 0 0 0 0 0 0
0 0 0 0 0 0 0 0 0 0 0 0 0 0 0 0 0 0 0 0 0 0 0 0 0 0 0 0 0 0 0 0 0 0 0 0 0 0 0 0 0 0 0 0
0 0 0 0 0 0 0 0 0 0 0 0 0 0 0 0 0 0 0 0 0 0 0 0 0 0 0 0 0 0 0 0 0 0 0 0 0 0 0 0 0 0 0 0
0 0 0 0 0 0 0 0 0 0 0 0 0 0 0 0 0 0 0 0 0 0 0 0 0 0 0 0 0 0 0 0 0 0 0 0 0 0 0 0 0 0 0 0
0 0 0 0 0 0 0 0 0 0 0 0 0 0 0 0 0 0 0 0 0 0 0 0 0 0 0 0 0 0 0 0 0 0 0 0 0 0 0 0 0 0 0 0
0 0 0 0 0 0 0 0 0 0 0 0 0 0 0 0 0 0 0 0 0 0 0 0 0 0 0 0 0 0 0 0 0 0 0 0 0 0 0 0 0 0 0 0
0 0 0 0 0 0 0 0 0 0 0 0 0 0 0 0 0 0 0 0 0 0 0 0 0 0 0 0 0 0 0 0 0 0 0 0 0 0 0 0 0 0 0 0
0 0 0 0 0 0 0 0 0 0 0 0 0 0 0 0 0 0 0 0 0 0 0 0 0 0 0 0 0 0 0 0 0 0 0 0 0 0 0 0 0 0 0 0
0 0 0 0 0 0 0 0 0 0 0 0 0 0 0 0 0 0 0 0 0 0 0 0 0 0 0 0 0 0 0 0 0 0 0 0 0 0 0 0 0 0 0 0
0 0 0 0 0 0 0 0 0 0 0 0 0 0 0 0 0 0 0 0 0 0 0 0 0 0 0 0 0 0 0 0 0 0 0 0 0 0 0 0 0 0 0 0
0 0 0 0 0 0 0 0 0 0 0 0 0 0 0 0 0 0 0 0 0 0 0 0 0 0 0 0 0 0 0 0 0 0 0 0 0 0 0 0 0 0 0 0
0 0 0 0 0 0 0 0 0 0 0 0 0 0 0 0 0 0 0 0 0 0 0 0 0 0 0 0 0 0 0 0 0 0 0 0 0 0 0 0 0 0 0 0
0 0 0 0 0 0 0 0 0 0 0 0 0 0 0 0 0 0 0 0 0 0 0 0 0 0 0 0 0 0 0 0 0 0 0 0 0 0 0 0 0 0 0 0
0 0 0 0 0 0 0 0 0 0 0 0 0 0 0 0 0 0 0 0 0 0 0 0 0 0 0 0 0 0 0 0 0 0 0 0 0 0 0 0 0 0 0 0
Height
5739 5741 5743 5745 5748 5750 5752 5754 5756 5758 5759 5760 5760 5761 5761 5761 5761 5761 5761 5760 5759 5758 5757 5755 5753 5751 5748 5745 5741 5738 5734 5730 5726 5722 5718 5714 5709 5705 5700 5695 5690 5685 5679 5674
5731 5733 5735 5737 5740 5742 5744 5745 5747 5749 5750 5751 5751 5751 5750 5750 5750 5750 5750 5749 5748 5747 5746 5744 5741 5738 5735 5732 5729 5725 5721 5718 5713 5709 5705 5700 5696 5691 5686 5681 5676 5671 5666 5661
5722 5723 5725 5729 5732 5733 5735 5736 5738 5739 5741 5741 5741 5741 5741 5740 5739 5739 5738 5738 5737 5736 5734 5731 5728 5725 5722 5719 5716 5712 5708 5705 5700 5696 5692 5687 5683 5678 5673 5668 5663 5658 5653 5648
5714 5716 5717 5721 5722 5723 5725 5727 5729 5730 5731 5731 5731 5731 5730 5729 5729 5728 5728 5727 5725 5723 5721 5718 5716 5713 5709 5706 5703 5699 5695 5691 5687 5683 5678 5674 5669 5664 5660 5655 5650 5646 5641 5636
5707 5708 5709 5712 5713 5715 5716 5718 5719 5720 5721 5721 5721 5721 5721 5720 5719 5718 5717 5715 5714 5711 5709 5706 5703 5700 5697 5693 5689 5686 5682 5678 5674 5669 5665 5660 5656 5651 5647 5642 5638 5634 5629 5624
5699 5700 5702 5705 5706 5706 5709 5710 5711 5711 5711 5712 5712 5713 5712 5711 5710 5708 5706 5704 5702 5700 5697 5694 5691 5688 5684 5680 5676 5673 5669 5665 5660 5656 5652 5648 5643 5639 5635 5630 5626 5622 5617 5612
5693 5694 5695 5697 5697 5699 5702 5703 5702 5702 5702 5702 5703 5703 5702 5701 5699 5698 5696 5694 5691 5689 5686 5683 5679 5676 5672 5668 5664 5660 5656 5652 5648 5644 5639 5635 5631 5627 5623 5619 5614 5610 5606 5601
5688 5689 5691 5690 5691 5693 5693 5694 5694 5694 5694 5694 5694 5693 5692 5691 5690 5688 5686 5684 5681 5678 5675 5672 5668 5664 5660 5656 5652 5648 5644 5640 5636 5632 5628 5623 5619 5615 5611 5607 5603 5598 5594 5590
5685 5686 5685 5685 5685 5686 5686 5687 5687 5687 5686 5686 5686 5685 5684 5682 5681 5679 5677 5674 5671 5668 5665 5661 5657 5654 5650 5646 5642 5638 5634 5630 5625 5621 5617 5613 5608 5604 5600 5596 5592 5588 5584 5580
5681 5681 5681 5681 5681 5681 5681 5680 5680 5680 5679 5678 5678 5677 5675 5674 5672 5670 5668 5665 5662 5659 5655 5651 5648 5644 5641 5637 5633 5628 5624 5620 5615 5611 5607 5602 5598 5594 5590 5586 5582 5579 5575 5572
5677 5677 5677 5677 5676 5676 5675 5674 5674 5673 5672 5671 5670 5669 5667 5666 5664 5662 5659 5656 5653 5650 5647 5643 5640 5636 5633 5628 5624 5620 5615 5611 5606 5602 5597 5593 5589 5585 5581 5578 5574 5571 5568 5565
5674 5674 5673 5672 5671 5670 5669 5668 5667 5666 5665 5664 5663 5662 5660 5659 5657 5655 5653 5650 5647 5644 5641 5637 5634 5630 5626 5621 5617 5612 5607 5603 5598 5594 5589 5585 5581 5578 5574 5571 5568 5565 5562 5559
5670 5669 5668 5667 5666 5665 5664 5663 5661 5660 5659 5658 5657 5656 5655 5654 5652 5650 5648 5646 5643 5640 5636 5633 5629 5624 5620 5615 5610 5605 5600 5596 5591 5587 5583 5579 5575 5571 5568 5565 5562 5559 5557 5555
5666 5665 5664 5663 5662 5661 5660 5658 5657 5655 5655 5654 5653 5653 5652 5651 5649 5647 5645 5643 5640 5636 5633 5628 5624 5619 5614 5609 5604 5599 5595 5590 5586 5581 5577 5573 5570 5566 5563 5561 5558 5556 5554 5553
5663 5662 5661 5660 5659 5658 5657 5656 5654 5653 5652 5652 5651 5651 5650 5649 5648 5646 5644 5641 5637 5634 5629 5625 5620 5615 5610 5605 5600 5595 5590 5586 5581 5577 5573 5570 5566 5563 5561 5558 5556 5555 5553 5553
5661 5660 5658 5658 5657 5656 5655 5654 5653 5653 5652 5651 5651 5651 5650 5649 5647 5645 5643 5639 5636 5632 5627 5622 5617 5612 5607 5602 5597 5592 5587 5583 5579 5575 5571 5568 5565 5562 5560 5558 5557 5556 5555 5555
5659 5658 5657 5656 5655 5655 5654 5654 5653 5653 5652 5652 5652 5651 5650 5649 5647 5645 5642 5639 5635 5630 5626 5621 5616 5611 5605 5600 5595 5591 5586 5582 5578 5575 5571 5568 5566 5563 5562 5560 5559 5558 5558 5559
5657 5657 5656 5656 5655 5655 5655 5655 5654 5654 5654 5653 5653 5653 5652 5650 5648 5646 5643 5639 5635 5630 5626 5621 5616 5611 5606 5601 5596 5591 5587 5583 5579 5576 5573 5570 5568 5566 5565 5564 5563 5563 5563 5563
5656 5656 5656 5655 5656 5656 5656 5656 5655 5655 5655 5655 5655 5654 5653 5652 5650 5647 5644 5640 5636 5632 5627 5623 5618 5613 5608 5603 5598 5593 5589 5585 5581 5578 5576 5574 5572 5570 5569 5568 5568 5568 5568 5569
5655 5656 5656 5656 5656 5656 5657 5657 5657 5657 5657 5657 5657 5656 5655 5654 5651 5649 5646 5642 5638 5634 5630 5626 5621 5616 5611 5606 5601 5597 5592 5588 5585 5582 5579 5577 5576 5575 5574 5573 5573 5573 5573 5573
5654 5655 5656 5656 5657 5657 5658 5658 5659 5659 5660 5660 5660 5659 5658 5656 5654 5651 5648 5645 5642 5638 5634 5630 5625 5621 5616 5611 5606 5601 5597 5592 5589 5586 5584 5582 5581 5580 5579 5578 5578 5578 5578 5578
5653 5654 5655 5656 5657 5658 5659 5660 5660 5661 5662 5662 5662 5661 5660 5658 5657 5654 5652 5649 5645 5642 5638 5634 5630 5625 5621 5616 5611 5606 5602 5597 5594 5590 5588 5586 5585 5584 5583 5583 5582 5582 5582 5582
5652 5654 5655 5656 5658 5659 5660 5661 5662 5663 5663 5664 5664 5664 5663 5661 5660 5658 5656 5653 5650 5647 5643 5639 5635 5631 5627 5622 5617 5612 5608 5603 5599 5595 5593 5590 5589 5588 5587 5586 5586 5586 5586 5585
5651 5653 5655 5656 5658 5659 5661 5662 5663 5664 5665 5666 5666 5666 5665 5664 5663 5661 5659 5657 5654 5652 5648 5644 5641 5637 5633 5628 5624 5619 5614 5609 5605 5601 5597 5595 5593 5591 5590 5590 5589 5589 5589 5589
5650 5652 5654 5656 5658 5659 5661 5663 5664 5665 5667 5667 5668 5668 5668 5667 5667 5665 5663 5661 5659 5657 5653 5650 5647 5643 5639 5635 5630 5626 5621 5616 5611 5607 5603 5600 5598 5596 5595 5594 5593 5593 5593 5593
5648 5651 5653 5655 5657 5659 5661 5663 5664 5666 5667 5668 5669 5670 5670 5670 5670 5669 5667 5665 5664 5661 5659 5656 5653 5650 5646 5642 5638 5633 5629 5624 5619 5615 5610 5607 5604 5602 5600 5599 5598 5598 5598 5598
5646 5649 5652 5654 5656 5658 5660 5662 5664 5666 5668 5669 5670 5671 5672 5672 5672 5672 5670 5669 5668 5666 5664 5661 5659 5656 5653 5649 5645 5641 5637 5632 5628 5624 5620 5616 5613 5610 5608 5606 5605 5604 5604 5604
Wind_Speed
30 32 33 33 34 36 37 37 37 37 38 40 41 42 42 42 41 40 39 39 40 41 42 44 46 48 50 51 53 53 53 53 53 53 52 52 53 54 55 56 57 58 58 59
34 35 37 38 38 38 39 40 40 40 41 42 43 43 43 42 41 41 40 40 42 44 46 48 50 51 53 54 55 55 55 53 52 51 51 52 52 53 54 55 55 55 55 56
37 38 38 40 40 40 41 40 40 40 41 43 43 42 41 39 40 40 41 42 45 47 49 51 52 53 54 54 54 54 52 51 51 50 50 50 51 52 52 52 53 53 53 53
36 38 39 38 37 36 36 38 39 39 38 39 39 39 39 39 39 40 42 44 46 47 49 50 52 53 53 53 53 52 50 50 49 49 49 49 49 49 49 50 49 50 50 50
31 33 35 35 34 34 34 34 34 34 35 36 37 38 39 39 39 40 41 43 45 47 49 50 51 51 51 51 50 49 48 48 47 47 47 46 46 47 47 47 47 48 49 49
26 27 28 29 29 30 32 32 32 33 34 34 36 37 38 39 40 41 42 44 45 46 48 49 49 49 49 48 47 47 46 46 45 45 44 44 45 45 45 46 46 47 47 47
21 22 24 24 24 25 25 26 28 30 32 33 35 36 37 38 40 41 42 43 44 45 46 46 46 46 46 45 45 45 44 43 42 42 42 42 43 43 44 44 45 45 45 45
16 17 18 19 20 22 22 23 25 26 28 29 31 32 34 35 36 38 39 40 41 41 42 42 43 43 42 42 41 41 40 40 40 40 40 41 41 42 42 43 43 42 42 40
14 14 14 15 17 18 20 21 22 24 26 27 29 30 31 32 33 35 36 37 38 39 40 40 40 39 38 37 36 36 36 37 38 38 39 39 39 40 40 40 39 38 36 34
13 13 14 14 16 18 19 21 22 24 25 27 28 29 30 31 32 33 35 36 36 36 36 35 34 32 32 32 32 33 34 35 35 36 37 37 38 37 37 35 33 31 30 28
12 13 13 14 16 18 19 20 22 24 25 26 27 28 29 30 30 30 30 30 29 29 28 27 26 26 27 29 30 30 31 33 34 35 35 35 34 32 31 29 27 26 25 23
13 14 15 16 17 18 19 20 21 22 23 23 23 23 23 23 22 22 22 22 21 20 21 21 23 24 26 27 28 30 31 31 31 31 31 30 29 27 26 24 23 22 21 19
14 14 15 15 16 16 17 17 18 18 17 17 17 16 15 16 16 15 15 15 16 18 19 20 22 23 25 26 27 27 28 28 27 27 26 25 24 23 21 20 19 17 15 13
13 13 13 12 12 12 12 12 13 12 12 12 11 10 10 11 11 11 12 13 15 16 17 19 21 22 23 24 24 25 24 24 23 22 22 21 19 18 16 15 13 12 10 8
12 12 11 11 10 10 9 8 7 6 6 5 5 5 6 7 7 8 10 12 14 16 18 19 20 21 22 22 22 22 21 20 19 19 18 17 15 14 12 10 9 7 6 6
11 11 9 8 7 6 4 4 3 3 3 2 3 3 4 5 6 8 10 13 15 16 18 19 20 20 21 21 20 19 18 17 17 16 15 14 12 10 9 8 7 8 8 10
9 8 5 3 3 2 2 3 3 4 3 4 4 4 6 7 8 10 13 14 15 17 18 19 20 20 20 20 19 18 17 16 15 14 13 12 11 11 10 9 10 11 12 13
6 4 2 1 1 2 2 3 4 4 4 5 7 7 8 10 11 13 14 15 16 18 19 20 20 21 20 20 20 19 18 16 14 13 13 12 12 12 13 13 14 15 15 16
4 2 1 1 2 2 3 4 4 5 7 8 9 10 11 12 13 14 15 17 18 20 21 21 22 22 21 21 21 20 19 17 16 14 14 14 14 14 15 15 16 16 16 15
4 3 2 3 3 3 3 4 5 7 8 9 10 11 12 13 14 15 17 18 20 21 22 23 23 24 24 23 23 23 22 20 18 16 15 15 16 16 16 16 16 16 15 15
5 5 4 4 4 4 4 5 7 8 9 10 10 11 12 13 15 16 18 19 21 22 23 23 24 25 25 25 26 25 24 23 21 19 17 16 16 16 16 16 15 15 14 13
7 6 6 5 5 6 6 7 8 9 9 9 10 11 12 14 15 17 18 20 22 22 23 24 25 25 26 27 27 27 27 25 23 21 19 17 16 15 15 14 14 14 13 13
9 8 7 7 7 7 7 8 8 9 9 9 9 10 12 14 15 16 18 20 21 22 23 24 25 26 27 28 28 28 28 27 25 22 20 18 16 15 14 14 13 13 13 13
11 10 9 9 9 9 9 9 9 9 9 9 9 10 11 13 14 16 17 19 20 22 23 25 25 26 27 28 29 29 29 28 26 24 22 20 18 16 15 14 14 14 14 14
13 13 12 11 11 10 10 10 10 10 10 9 8 9 10 12 13 15 17 18 19 21 23 24 25 26 27 28 29 29 30 30 28 26 24 22 20 19 17 16 16 15 16 16
14 15 14 13 12 12 12 11 11 11 10 9 8 9 9 10 11 13 15 16 18 20 21 23 24 25 26 28 29 30 31 31 31 30 28 26 24 22 20 19 19 18 18 18
16 16 16 15 14 13 12 12 12 12 11 10 9 8 8 9 9 11 12 14 16 18 19 21 22 24 25 27 28 30 31 32 32 32 31 30 29 28 26 24 23 21 20 20
Wind_Direction
246 242 241 243 245 246 246 248 250 252 254 256 257 258 260 260 261 262 266 271 278 284 288 290 290 291 292 293 294 295 296 298 299 298 298 297 297 297 296 296 295 296 296 296
251 248 244 244 245 247 247 249 250 253 256 258 258 259 260 261 262 266 270 275 281 285 288 289 290 292 293 294 296 297 298 299 298 298 297 296 295 295 295 295 295 296 296 296
258 257 256 250 247 247 249 251 253 255 259 261 263 265 266 269 271 275 277 281 283 286 288 290 292 293 294 295 297 298 298 298 297 296 295 295 294 294 295 295 295 295 295 296
263 264 266 265 263 262 261 260 261 264 267 270 272 274 276 279 280 280 282 284 286 287 289 290 292 293 294 295 296 297 297 296 296 295 295 294 294 294 294 294 294 294 295 296
266 267 269 270 270 271 271 272 273 273 274 273 273 275 277 279 281 281 282 283 285 287 289 290 292 293 294 295 295 295 295 295 295 294 294 294 294 293 293 293 293 294 295 296
269 270 271 271 271 271 272 271 270 270 271 271 273 274 275 277 278 279 281 284 287 288 289 291 292 293 294 294 295 295 294 294 294 294 293 293 293 293 293 293 294 295 296 296
273 272 271 272 272 271 270 269 267 267 267 269 270 273 275 277 278 281 283 286 288 289 290 292 293 293 293 293 293 293 293 293 293 292 292 292 292 293 293 294 295 295 296 296
276 273 271 270 268 267 268 267 266 266 268 269 272 274 276 278 280 282 285 287 288 290 291 292 292 292 292 292 292 293 293 293 292 292 293 293 293 294 294 295 296 297 297 298
275 273 269 265 264 264 266 267 269 269 271 272 274 276 278 280 282 284 286 288 289 290 291 292 293 293 293 293 293 293 293 293 293 294 294 295 295 296 297 298 299 299 300 300
276 274 272 270 269 270 270 272 274 275 275 277 279 280 282 284 285 286 288 289 290 291 291 292 293 293 293 294 294 295 295 296 296 296 297 298 299 300 301 301 301 301 301 301
278 275 274 275 275 275 275 276 277 278 279 280 281 283 285 286 287 288 290 291 293 294 295 296 296 297 298 298 299 299 300 300 300 301 301 302 303 303 304 304 304 304 303 303
285 283 284 284 282 281 281 281 281 281 281 281 283 285 287 288 289 293 296 298 300 302 303 303 303 303 304 304 304 305 305 305 305 305 305 305 306 306 307 307 307 306 305 305
293 292 291 290 288 288 288 289 288 286 283 284 286 288 291 294 297 301 305 308 309 310 311 310 309 310 311 311 311 311 311 311 310 310 311 311 312 311 311 311 312 313 313 314
301 300 299 296 295 297 299 299 296 291 287 288 290 293 298 303 307 311 315 318 319 321 321 320 320 320 320 320 319 318 318 318 318 318 319 319 320 320 321 322 325 327 331 338
305 305 302 298 299 302 306 310 314 312 306 298 302 309 315 322 329 334 334 335 336 335 333 333 332 332 331 331 330 329 329 330 330 330 330 331 332 334 337 341 349 3 20 43
305 307 305 302 306 310 316 332 353 359 355 352 353 355 5 5 359 358 357 354 350 348 347 347 346 346 347 347 347 346 345 346 346 348 350 353 357 2 9 20 34 47 62 75
305 305 304 311 331 358 20 35 37 37 50 55 52 53 45 34 26 17 10 6 4 3 3 3 2 1 1 1 1 1 1 1 3 7 12 17 26 36 46 55 63 73 81 88
301 298 304 337 71 76 66 57 57 62 73 77 76 68 56 44 35 27 22 20 19 18 17 15 13 12 12 11 12 13 13 15 18 22 28 37 47 56 65 73 79 84 89 93
280 267 251 143 124 104 88 76 75 86 95 91 83 71 59 49 42 37 34 32 31 30 28 27 25 24 24 24 24 25 27 30 33 39 47 55 63 70 75 79 84 87 90 91
247 227 193 158 144 128 107 99 103 107 103 94 84 72 61 53 48 44 42 41 39 38 36 35 34 35 35 34 35 36 38 40 44 50 56 64 70 75 79 82 85 87 87 86
225 208 187 170 160 148 130 122 120 116 109 99 86 74 64 58 53 50 48 47 45 42 41 40 40 40 40 40 41 42 43 45 48 54 60 66 72 76 78 81 83 83 82 79
212 198 186 178 166 156 144 135 130 123 116 104 90 77 69 63 58 55 54 52 50 47 45 44 43 43 44 44 44 45 45 47 50 54 60 67 72 75 78 80 81 80 78 74
204 194 185 179 171 165 155 146 139 132 124 112 96 82 74 69 64 61 59 56 53 50 49 47 47 47 47 47 46 46 46 47 49 53 58 63 68 71 75 79 80 79 76 73
201 194 188 182 176 171 164 154 148 141 134 122 105 90 80 74 70 67 64 61 58 55 53 52 51 50 49 48 47 46 46 47 49 52 56 60 64 68 73 76 79 79 78 75
200 195 191 186 181 177 169 162 158 153 145 135 119 102 89 80 75 72 69 66 62 60 58 55 53 52 51 50 49 48 48 48 50 52 55 59 63 67 72 75 78 81 81 80
197 194 191 187 183 180 177 172 169 164 157 149 136 119 103 91 82 76 73 71 68 64 61 58 56 54 53 52 51 51 51 51 52 54 57 60 64 68 72 75 78 81 82 82
199 197 194 191 187 186 186 183 179 175 170 164 152 137 121 105 92 84 80 77 73 68 64 61 59 57 55 55 55 54 53 54 54 56 58 61 64 67 71 74 76 78 81 82